Regional Weather Roundup
Issued by NWS

Home | Current Version | Previous Version | Graphics & Text | Print | Product List | Glossary On
Versions: 1 2 3 4 5 6 7 8 9 10 11 12 13 14 15 16 17 18 19 20 21 22 23 24 25 26 27 28 29 30 31 32 33 34 35 36 37 38 39 40 41 42 43 44 45 46 47 48 49 50
000
ASUS43 KLOT 051221
RWRIL

ILLINOIS REGIONAL WEATHER ROUNDUP
NATIONAL WEATHER SERVICE CHICAGO/ROMEOVILLE IL
700 AM CDT SUN JUL 05 2015

NOTE: "FAIR" INDICATES FEW OR NO CLOUDS BELOW 12,000 FEET WITH NO
SIGNIFICANT WEATHER AND/OR OBSTRUCTIONS TO VISIBILITY.

* THESE STATIONS ARE NOT UNDER NWS QUALITY CONTROL. THEY ALSO MAY NOT
  REPORT WEATHER SUCH AS PRECIPITATION OR FOG.

ILZ001-002-007-009-015-016-024-051300-
NORTHWEST ILLINOIS

CITY           SKY/WX    TMP DP  RH WIND       PRES   REMARKS
MOLINE         SUNNY     65  60  84 E3        30.05S HAZE
6HR MIN TEMP:  61; 6HR MAX TEMP:  66;

STERLING*      SUNNY     63  61  94 E5        30.07S
SAVANNA*       SUNNY     63  61  93 CALM      30.06R FOG
$$

ILZ003-004-008-010-011-017-018-051300-
NORTH CENTRAL ILLINOIS

CITY           SKY/WX    TMP DP  RH WIND       PRES   REMARKS
ROCKFORD       MOSUNNY   64  60  87 CALM      30.09R
6HR MIN TEMP:  60; 6HR MAX TEMP:  65;

FREEPORT*      SUNNY     62  60  94 CALM      30.09S FOG
ROCHELLE*      SUNNY     60  59  94 CALM      30.09S FOG
DE KALB*       SUNNY     61  57  88 CALM      30.10R
PERU*          SUNNY     65  61  88 CALM      30.09R FOG
$$

ILZ005-006-012>014-019>023-051300-
NORTHEAST ILLINOIS

CITY           SKY/WX    TMP DP  RH WIND       PRES   REMARKS
CHICAGO-OHARE  SUNNY     64  60  87 CALM      30.08R FOG
6HR MIN TEMP:  60; 6HR MAX TEMP:  67;

CHICAGO-MIDWAY MOSUNNY   69  61  75 SW3       30.08R HAZE
6HR MIN TEMP:  65; 6HR MAX TEMP:  71;

AURORA         SUNNY     63  59  87 CALM      30.10R FOG
6HR MIN TEMP:  59; 6HR MAX TEMP:  64;

LANSING*       SUNNY     64  61  87 CALM      30.10R FOG
JOLIET*        SUNNY     64  63  97 CALM      30.09R FOG
WAUKEGAN       SUNNY     64  59  83 CALM      30.08R HAZE
6HR MIN TEMP:  58; 6HR MAX TEMP:  64;

DUPAGE AIRPORT SUNNY     63  60  90 CALM      30.09R FOG
6HR MIN TEMP:  59; 6HR MAX TEMP:  64;

KANKAKEE*      MOSUNNY   64  63  96 CALM      30.10R FOG
WHEELING       HAZE      64  59  83 CALM      30.10R VSB 1
6HR MIN TEMP:  59; 6HR MAX TEMP:  65;

MORRIS*        SUNNY     62  61  95 CALM      30.06S FOG
ROMEOVILLE*    SUNNY     64  61  88 CALM      30.09R FOG
NORTHERLY ISL    N/A     70  58  65 SW5         N/A
$$

LMZ740>746-051300-
SOUTHERN LAKE MICHIGAN

STATION/POSITION SKY/WX   TEMP    WIND        PRES    VSBY  WAVE
                          AIR SEA DIR/SP/G                  HT/PER
                          (F)     (DEG/KT/KT) (MB)    (MI)  (FT/S)
HARRISON CRIB              71     200/ 10/ 10   N/A
BURNHAM HARBOR             70     260/  6/  6   N/A
CALUMET HARBOR             68     220/  2/  4   N/A
BURNS HARBOR               66     190/  8/  9 1019.0S
MICHIGAN CITY              68     160/  6/  8   N/A
MICHIGAN CITY 6N           66 64  230/  2/  4   N/A           1
ST. JOSEPH                 64 62                N/A           0
$$

ILZ025>027-034>036-040-047-049-050-058-095>099-051300-
WEST-CENTRAL ILLINOIS

CITY           SKY/WX    TMP DP  RH WIND       PRES   REMARKS
QUINCY         SUNNY     66  62  87 SE5       30.05R FOG
GALESBURG*     SUNNY     63  61  92 CALM      30.06S
MACOMB*        SUNNY     62  62 100 CALM      30.08R FOG
JACKSONVILLE*  SUNNY     65  62  92 CALM      30.07R FOG
PITTSFIELD*    SUNNY     64  62  94 CALM      30.07S FOG
$$

ILZ028>032-037-038-041>044-048-051>054-059>061-051300-
CENTRAL ILLINOIS

CITY           SKY/WX    TMP DP  RH WIND       PRES   REMARKS
PONTIAC        SUNNY     62  62  98 CALM      30.10R FOG
BLOOMINGTON    SUNNY     64  62  93 S5        30.10R
DECATUR        SUNNY     62  59  90 CALM      30.08S FOG
PEORIA         SUNNY     67  62  84 CALM      30.07S HAZE
6HR MIN TEMP:  64; 6HR MAX TEMP:  69;

LACON*         SUNNY     62  60  93 CALM      30.07S FOG
LINCOLN*       SUNNY     62  59  91 CALM      30.08S FOG
SPRINGFIELD    SUNNY     67  62  84 E3        30.07S
6HR MIN TEMP:  63; 6HR MAX TEMP:  69;

TAYLORVILLE    SUNNY     61  61 100 CALM      30.08R FOG
$$

ILZ033-039-045-046-055>057-062-063-051300-
EAST-CENTRAL ILLINOIS

CITY           SKY/WX    TMP DP  RH WIND       PRES   REMARKS
CHAMPAIGN      SUNNY     63  59  87 E3        30.09R
DANVILLE*      SUNNY     61  60  97 CALM      30.07R FOG
RANTOUL*       SUNNY     66  63  90 CALM      30.09S FOG
MATTOON        SUNNY     63  61  93 CALM      30.08R FOG
PARIS*           N/A     62  62  99 CALM      30.10R FOG
$$

ILZ079-100>102-051300-
SOUTHWEST ILLINOIS

CITY           SKY/WX    TMP DP  RH WIND       PRES   REMARKS
BELLEVILLE     LGT RAIN  66  66 100 CALM      30.05S
CAHOKIA*       SUNNY     66  63  90 CALM      30.05S
SPARTA*        SUNNY     67  66  96 CALM      30.08R FOG
$$

ILZ064>066-069>071-074>076-080>082-084>086-088>090-092>094-051300-
SOUTH-CENTRAL ILLINOIS

CITY           SKY/WX    TMP DP  RH WIND       PRES   REMARKS
CARBONDALE     CLOUDY    67  66  97 S3        30.07R FOG
6HR MIN TEMP:  65; 6HR MAX TEMP:  69;

CAIRO*         FOG       67  67 100 CALM      30.07R VSB<1/4
EFFINGHAM*     SUNNY     64  62  91 CALM      30.10S FOG
MARION         FOG       66  66 100 SE3       30.08R VSB 1
MT. VERNON     MOSUNNY   64  61  88 CALM      30.08S
CENTRALIA*     SUNNY     65  63  93 CALM      30.08R FOG
SALEM*         SUNNY     68  65  93 CALM      30.08S FOG
$$

ILZ067-068-072-073-078-083-087-091-051300-
SOUTHEAST ILLINOIS

CITY           SKY/WX    TMP DP  RH WIND       PRES   REMARKS
LAWRENCEVILLE  PTSUNNY   69  66  90 NE3       30.08S FOG
FLORA*         PTSUNNY   65  64  98 CALM      30.08S FOG
FAIRFIELD*     PTSUNNY   67  66  99 CALM      30.07R FOG
HARRISBURG*    PTSUNNY   67  67 100 CALM      30.08S FOG
ROBINSON*      PTSUNNY   66  65  97 CALM      30.09S FOG
CARMI*         CLOUDY    69  64  84 CALM      30.07R HAZE
$$

ABBREVIATIONS USED IN REMARKS
   TC - TEMPERATURE IN CELSIUS
  WCI - WIND CHILL INDEX
   HX - HEAT INDEX
  VSB - VISIBILITY
$$




USA.gov is the U.S. government's official web portal to all federal, state and local government web resources and services.